{"data":{"norad_id":63560,"intl_designator":"2025-075N","name":"STARLINK-11592 [DTC]","alt_names":[],"object_type":"PAYLOAD","status":"ACTIVE","operator":null,"country":"US","launch_date":"2025-04-13","launch_site_code":"AFETR","launch_vehicle":null,"mission":null,"orbit_class":"UNKNOWN","rcs_meters":null,"size_class":null,"mass_kg":null,"dimensions":null,"purposes":["comms"],"wikipedia_slug":null,"has_3d_model":false,"image_url":null,"decayed_at":null,"tle_current":{"epoch":"2026-05-25T03:20:17.458080Z","epoch_age_seconds":73730,"freshness":"FRESH","line1":"1 63560U 25075N   26145.13909095  .00203884  00000+0  15495-2 0  9993","line2":"2 63560  43.0007  52.8499 0001677 256.7071 103.3609 15.70905588 65272","mean_motion":15.70905588,"eccentricity":0.0001677,"inclination_deg":43.0007,"raan_deg":52.8499,"arg_perigee_deg":256.7071,"mean_anomaly_deg":103.3609,"bstar":0.0015495,"rev_number":6527,"period_min":91.666871071058,"perigee_km":355.17823895169,"apogee_km":357.43697167231,"semimajor_km":6734.444605312,"source":"CELESTRAK","updated_at":"2026-05-25T13:38:20.043143Z"}}}